Theta_e
294 289 287 292 290 291 289 287 287 289 294 291 290 292 294 292 291 290 290 290 291 292 292 295 294 295 296 296 295 295 296 298 298 296 295 294 292 292 292 293 293 293 293 292
291 287 294 295 293 291 289 287 288 290 293 291 291 290 293 291 292 294 294 292 292 290 291 293 293 293 295 295 297 296 298 298 299 298 294 292 291 290 291 291 291 291 291 290
289 293 296 294 291 290 289 287 287 289 290 289 287 288 290 292 294 294 295 296 294 292 291 292 292 292 292 294 298 298 298 298 297 293 292 290 290 289 289 288 288 288 289 287
291 295 294 291 290 292 287 292 292 290 287 284 288 283 287 290 291 292 295 294 293 291 292 293 292 291 292 293 298 298 297 295 293 293 291 291 289 287 287 287 287 286 285 285
290 291 291 290 291 293 290 292 290 288 285 283 284 282 285 289 289 292 295 292 290 291 291 292 292 293 293 296 298 297 294 293 293 292 292 289 287 286 286 285 283 283 284 284
290 292 293 293 292 293 293 290 288 286 284 279 285 284 289 289 292 296 297 291 291 290 291 292 292 293 293 297 297 295 293 292 293 291 289 288 286 285 283 283 282 282 282 282
289 289 290 292 289 290 290 286 280 278 277 279 284 283 289 291 292 294 293 290 289 290 290 290 289 290 291 294 294 294 293 291 290 289 288 287 285 284 283 282 282 281 281 281
284 283 289 292 291 289 287 287 281 273 275 278 282 280 286 291 293 290 292 291 288 288 290 290 290 290 290 291 291 292 290 289 288 288 286 286 284 284 283 283 282 282 281 281
284 284 289 290 290 293 286 285 290 283 272 275 282 285 290 291 290 290 289 288 287 288 289 289 289 289 290 289 289 290 289 288 288 287 286 285 284 284 283 282 282 281 281 281
290 284 287 287 291 290 288 290 282 284 274 274 280 281 285 289 289 289 287 286 286 288 287 288 288 288 288 288 288 289 289 287 287 286 285 285 284 283 283 282 281 281 280 280
292 290 284 287 286 286 286 285 286 288 283 276 274 282 288 290 291 290 288 288 287 288 286 287 287 287 287 285 286 288 288 286 285 285 285 284 283 283 282 281 281 280 280 279
293 291 281 285 289 291 290 289 290 285 278 280 279 285 288 289 290 290 289 289 288 288 287 286 286 285 285 284 284 285 286 285 285 285 284 283 282 282 281 280 279 280 279 279
295 289 284 285 287 289 287 289 291 289 284 281 279 284 287 288 288 288 288 288 288 287 285 284 284 284 284 284 284 284 284 284 284 284 283 282 281 281 280 279 279 279 278 277
298 290 287 284 285 285 283 286 289 290 285 282 286 287 286 287 287 289 288 287 286 286 284 284 283 284 285 284 284 284 284 284 284 283 283 282 281 280 280 279 279 278 277 277
296 287 289 290 289 286 284 286 288 288 288 286 289 288 293 291 290 290 289 287 286 286 284 284 283 283 284 284 284 284 284 283 284 283 282 282 281 281 280 279 278 277 277 276
295 288 288 288 290 289 287 288 286 288 290 290 290 289 293 294 292 289 290 288 287 287 286 285 284 283 283 284 284 284 283 283 283 283 282 282 281 280 279 278 277 277 276 276
289 288 286 285 289 288 283 288 290 289 289 290 286 291 296 294 293 291 289 288 288 288 288 286 285 284 284 284 284 283 284 284 283 282 282 282 281 280 279 278 277 277 276 276
289 289 288 285 285 278 288 288 293 291 293 292 291 292 292 292 295 294 291 290 289 290 290 288 287 286 285 285 285 284 283 283 283 283 282 282 281 280 279 277 277 276 275 275
288 287 285 283 282 284 285 283 285 287 288 294 293 293 295 294 287 289 290 290 291 291 291 290 288 287 285 284 284 283 282 283 283 282 282 282 281 280 278 277 276 276 275 274
287 288 285 283 280 278 281 281 286 289 283 286 293 294 294 287 284 292 288 288 288 288 288 287 285 284 284 284 284 283 282 282 282 283 283 282 281 280 278 277 276 276 275 275
279 282 280 282 281 281 282 282 285 281 282 280 285 289 286 286 289 289 288 288 288 288 288 287 286 284 285 284 283 282 282 282 284 284 283 282 281 280 279 278 276 276 274 273
279 279 279 282 280 278 281 283 284 285 282 282 284 285 285 287 285 284 285 286 286 287 286 286 285 285 284 284 284 283 282 284 283 283 282 281 281 280 279 277 275 274 273 272
279 282 280 283 283 287 283 286 286 286 285 285 285 285 287 286 284 284 283 282 283 282 281 279 280 278 278 282 283 282 281 281 281 281 280 280 280 279 278 276 273 272 272 271
281 282 282 282 283 283 283 282 283 285 283 283 282 284 285 284 283 281 279 280 280 278 278 276 277 276 275 274 277 278 278 279 279 279 277 277 276 274 274 274 273 272 270 269
281 280 277 278 279 280 283 282 284 283 281 280 280 281 284 284 279 279 278 278 279 278 276 277 278 277 275 274 273 274 276 277 277 275 273 273 274 272 271 271 271 272 269 271
279 280 280 279 284 285 285 286 284 285 283 280 280 278 278 281 281 278 277 277 276 275 273 273 272 272 269 270 270 268 272 275 273 270 270 271 271 269 269 267 263 273 271 274
Wind_Speed
1 4 8 15 9 4 4 4 5 3 4 4 9 15 15 10 8 10 11 12 14 15 8 9 7 7 7 6 7 7 9 9 7 6 6 5 5 6 7 7 8 8 9 9
3 8 13 4 7 6 5 4 11 8 6 8 10 16 12 7 11 16 18 17 17 9 11 9 9 8 8 8 9 7 10 10 8 5 6 5 5 6 6 6 8 8 11 9
10 7 7 9 5 6 7 8 5 9 4 4 6 12 12 10 14 12 18 18 14 19 19 14 12 11 8 9 11 11 11 11 8 9 10 9 9 6 6 6 7 7 10 8
8 6 5 6 6 9 6 8 6 6 1 7 3 17 6 8 14 12 22 16 14 15 15 15 14 12 11 9 9 11 11 10 10 12 10 13 9 11 4 6 6 8 8 9
9 6 8 7 8 8 7 4 4 2 3 3 4 6 3 6 7 13 19 11 12 17 20 18 16 14 12 11 12 11 11 11 12 10 9 9 10 9 8 7 9 9 7 7
4 0 6 10 3 7 6 6 7 5 2 8 11 9 24 9 16 15 13 7 16 16 17 14 12 12 11 12 12 12 12 12 11 10 9 11 16 15 12 10 9 7 6 6
2 6 3 4 5 3 5 7 2 4 1 10 4 10 21 9 8 10 9 9 10 14 16 15 16 14 13 15 14 12 13 12 12 12 11 12 14 13 14 12 9 10 7 5
7 6 13 8 11 10 8 9 8 8 6 6 2 12 9 7 9 6 8 7 12 14 13 15 16 15 15 14 13 14 13 12 12 12 12 11 11 8 8 8 9 7 7 7
7 7 1 2 3 12 6 8 7 3 2 2 7 9 11 13 10 6 6 7 11 13 14 16 15 15 15 13 13 14 14 12 13 14 13 11 11 12 10 10 8 7 8 7
5 4 2 1 4 4 7 6 3 1 2 7 7 9 13 8 11 8 6 7 8 9 10 12 13 14 13 13 12 14 14 16 15 15 14 13 13 11 12 11 12 11 8 9
4 2 1 3 6 11 4 4 4 5 6 6 4 9 8 9 9 9 9 11 12 13 13 13 12 12 13 11 11 14 14 14 14 14 13 13 12 12 12 11 11 10 10 10
6 4 4 8 3 2 3 6 7 6 6 6 2 18 2 6 6 7 7 8 9 12 13 12 12 12 12 12 11 12 12 13 13 12 12 12 12 12 12 12 11 11 12 9
9 5 1 2 0 2 7 9 15 3 3 10 7 12 2 2 3 3 4 8 9 10 11 10 11 13 13 13 13 12 11 12 12 13 14 13 14 14 14 13 12 11 11 10
12 6 10 11 6 7 8 12 18 22 12 5 27 14 2 2 4 4 6 6 9 10 13 13 13 14 15 15 15 15 14 14 13 14 14 15 15 15 13 12 12 11 10 11
13 9 13 16 0 2 5 15 21 25 30 14 25 22 23 9 6 8 6 8 12 14 16 17 16 15 15 16 16 15 15 14 15 15 15 15 13 12 12 12 10 9 9 9
6 7 10 18 16 14 8 8 13 25 28 28 27 31 7 11 5 5 9 10 13 15 17 16 15 16 18 19 18 16 16 16 16 15 14 12 12 12 12 12 11 10 9 8
12 7 8 22 12 13 12 36 21 16 20 26 26 37 25 15 13 11 10 11 14 16 17 19 21 20 18 17 15 16 15 14 14 13 12 12 13 13 12 11 11 11 11 9
11 19 10 14 6 14 17 5 26 29 29 23 24 27 14 16 17 16 8 10 14 15 15 16 16 17 17 17 16 14 13 13 14 13 14 13 13 13 12 12 12 10 9 10
6 7 5 9 12 10 11 6 9 15 22 28 27 25 21 12 2 12 10 9 13 15 14 14 13 12 13 15 15 16 15 16 16 15 16 16 15 15 14 13 12 9 8 7
10 9 7 4 8 13 8 3 5 7 11 6 20 26 23 7 4 13 4 4 5 6 7 10 10 10 14 14 15 17 16 17 18 18 18 16 16 15 15 14 13 10 9 8
6 5 15 12 8 5 6 4 4 9 9 2 4 5 6 6 6 4 4 2 3 3 8 8 11 14 15 15 16 15 14 17 17 13 14 16 17 18 17 15 10 10 9 7
11 11 6 7 8 11 7 2 9 5 1 3 5 5 6 4 1 2 3 4 4 5 4 4 5 6 8 13 16 17 19 14 13 16 16 17 17 13 12 15 11 10 9 8
4 6 8 9 6 5 9 5 3 4 5 4 3 4 6 7 5 4 3 3 3 4 3 2 5 6 4 10 12 13 10 12 13 14 15 14 13 13 12 14 12 9 9 9
4 2 4 5 9 7 5 4 3 5 2 3 2 3 4 4 6 5 4 4 5 3 5 4 7 6 4 3 5 5 10 11 13 13 12 11 12 10 9 8 8 9 9 8
4 6 5 5 3 3 7 8 5 6 6 3 2 3 5 5 4 5 5 6 6 5 3 3 6 5 5 4 6 6 9 11 10 9 9 9 8 11 9 7 8 9 7 11
6 8 6 6 7 4 4 8 10 9 9 8 7 1 1 4 5 4 4 5 4 4 3 4 4 6 4 5 6 5 7 9 10 8 7 7 7 7 6 7 2 11 9 15
Wind_Direction
206 125 198 214 203 180 159 197 247 239 215 172 228 242 254 208 232 236 229 217 215 210 174 164 164 154 146 150 152 155 141 139 135 125 116 94 95 91 76 73 75 82 89 84
65 231 227 177 199 212 229 234 261 296 233 184 253 247 244 197 228 222 225 222 212 171 169 167 164 165 168 163 162 160 151 149 148 132 113 114 114 88 88 85 76 74 84 87
178 216 170 168 165 191 232 211 236 227 320 241 307 267 245 241 228 234 234 230 205 192 176 172 174 175 169 169 170 165 158 156 146 127 120 111 107 104 105 91 86 77 86 81
234 240 153 169 196 178 229 204 209 242 257 264 124 289 215 230 235 227 242 222 198 178 176 175 173 175 174 176 164 163 158 148 139 141 141 146 140 135 119 108 106 92 81 86
230 183 184 182 197 154 229 180 209 260 241 341 185 292 136 200 244 247 244 221 187 185 178 177 176 170 173 167 166 162 151 148 146 145 150 139 122 112 117 113 108 94 80 76
228 302 161 193 139 176 135 77 44 50 43 268 192 183 283 213 222 247 255 185 187 182 178 169 162 155 159 167 165 160 152 152 150 142 143 142 139 140 136 134 125 113 103 92
159 209 194 150 95 63 118 106 306 327 333 247 285 215 252 305 280 233 253 210 189 175 168 158 158 164 162 169 169 161 159 154 147 146 145 147 142 143 138 137 133 131 123 111
175 273 175 189 185 179 194 158 162 214 215 275 330 243 252 240 274 282 256 208 166 168 168 166 166 163 166 169 168 164 161 151 149 146 142 141 137 141 138 139 137 129 129 132
183 266 104 135 140 155 192 205 186 85 103 350 227 289 277 251 275 269 250 157 178 169 168 169 165 167 167 167 169 163 158 153 156 153 147 148 145 148 146 137 131 133 133 134
228 263 358 178 118 47 158 175 94 59 198 247 274 269 237 270 248 245 221 200 176 174 165 167 171 170 169 168 167 162 162 162 158 156 157 155 153 149 145 142 141 144 142 137
170 169 310 116 201 171 142 199 200 137 159 197 282 255 216 240 257 238 217 191 184 179 175 174 175 174 169 163 166 166 165 158 158 158 157 153 151 149 146 146 146 147 145 149
196 80 199 205 224 213 344 201 178 171 223 236 143 263 179 240 268 210 220 185 178 176 175 176 172 167 166 168 168 169 166 163 162 156 148 151 148 149 149 153 155 156 153 150
157 186 215 240 4 190 213 206 210 118 98 212 176 258 109 345 24 55 186 180 175 171 166 166 167 176 174 174 174 172 169 168 161 155 156 156 158 159 162 162 160 158 154 150
148 159 190 216 191 144 179 201 206 209 224 129 231 265 39 313 321 262 210 168 161 170 176 179 183 183 181 180 178 176 174 168 165 165 163 164 168 167 165 162 163 157 154 151
159 220 210 238 98 196 215 196 205 211 224 209 256 238 244 236 245 253 196 180 173 183 187 194 190 187 185 183 182 181 175 171 170 169 172 175 166 163 160 158 161 154 154 156
184 216 183 243 233 236 263 251 230 218 224 228 249 262 146 221 228 190 214 193 196 198 200 195 189 189 194 189 185 180 178 175 171 176 176 167 163 160 164 162 160 158 154 150
169 200 185 247 219 226 235 234 218 220 224 215 226 238 251 245 245 238 230 201 203 205 204 197 193 190 190 194 184 186 179 167 171 170 169 170 169 167 167 160 158 164 166 157
197 199 198 244 150 226 241 211 220 217 230 220 238 249 247 237 251 255 220 203 215 217 212 204 197 191 185 175 176 166 162 167 170 170 171 172 171 171 166 163 170 166 165 170
175 191 225 214 225 275 279 203 157 176 240 227 223 247 260 250 337 270 235 217 220 211 205 198 186 177 165 168 164 159 163 169 175 178 178 180 175 169 168 173 173 170 163 171
208 202 218 154 229 226 260 196 161 121 263 211 201 229 241 120 229 261 174 223 226 189 165 156 146 143 159 167 163 162 170 174 185 188 186 173 171 171 175 177 174 176 178 178
162 190 216 225 237 278 243 189 144 157 236 142 178 226 136 191 226 309 133 115 95 121 148 136 144 159 170 158 159 174 170 192 195 173 169 173 179 181 181 178 175 170 172 163
170 168 188 212 226 235 154 60 168 216 351 164 190 179 182 191 180 92 96 89 79 79 75 84 126 136 139 159 167 180 191 191 175 176 178 181 182 181 178 175 170 168 166 170
228 181 171 188 199 233 200 199 187 154 158 196 183 171 168 169 186 176 206 175 166 149 117 42 134 123 116 157 174 179 182 154 156 166 175 176 175 178 176 172 167 164 175 186
254 160 186 136 213 225 225 238 192 183 137 135 112 163 167 193 174 174 168 172 171 165 158 158 135 135 144 127 128 148 141 143 152 161 163 163 168 167 169 171 172 172 181 186
169 121 177 273 249 291 254 215 195 176 155 142 87 205 207 181 189 169 179 191 182 163 142 127 142 149 158 130 120 132 142 148 155 154 154 165 171 176 174 182 179 189 200 196
184 175 178 216 207 184 219 205 180 178 190 182 171 199 233 188 193 168 187 184 160 157 130 114 119 128 148 140 146 140 144 151 147 151 160 172 166 173 173 171 118 209 191 202